Weather History for PAKP - July, 2013

Change the Weather History Date:

Friday, July 19, 2013

  Actual Average Record
Temperature  
Mean Temperature 52 °F -  
Max Temperature 57 °F 59 °F 73 °F (2002)
Min Temperature 46 °F 42 °F 37 °F (2003)
Degree Days  
Heating Degree Days 14    
Growing Degree Days 2 (Base 50)    
Moisture  
Dew Point 48 °F    
Average Humidity 84    
Maximum Humidity 94    
Minimum Humidity 67    
Precipitation  
Precipitation 0.16 in - - ()
Sea Level Pressure  
Sea Level Pressure 30.03 in    
Wind  
Wind Speed 5 mph (NNE)    
Max Wind Speed 10 mph    
Max Gust Speed -    
Visibility 10 miles    
Events      
Averages and records for this station are not official NWS values.
T = Trace of Precipitation, MM = Missing Value Source: NWS Daily Summary

Daily Weather History Graph

Daily Weather History Graph

Search for Another Location

Airport or City:

Trip Planner

Search our weather history database for the weather conditions in past years. The results will help you decide how hot, cold, wet, or windy it might be!

Date:

Astronomy

Jul. 19, 2013 Rise Set
Actual Time 2:50 AM AKDT 1:25 AM AKDT
Civil Twilight Sun does not set Sun does not set
Nautical Twilight Sun does not set Sun does not set
Astronomical Twilight Sun does not set Sun does not set
Moon 10:07 PM AKDT (7/19) 12:33 AM AKDT (7/19)
Length of Visible Light 24h 00m
Length of Day
22h 34m
Waxing Gibbous, 88% of the Moon is Illuminated
Jul 19
Waxing Gibbous
Jul 22
Full
Jul 29
Last Quarter
Aug 6
New
Aug 14
First Quarter

Hourly Weather History & Observations

Time (AKDT) Temp. Windchill Dew Point Humidity Pressure Visibility Wind Dir Wind Speed Gust Speed Precip Events Conditions
12:16 AM 53.6 °F - 48.2 °F 82% 30.02 in 10.0 mi East 5.8 mph - N/A   Overcast
12:36 AM 51.8 °F - 48.2 °F 88% 30.02 in 10.0 mi NW 3.5 mph - N/A   Mostly Cloudy
12:56 AM 51.8 °F - 48.2 °F 88% 30.02 in 10.0 mi NNE 6.9 mph - N/A   Mostly Cloudy
1:16 AM 51.8 °F - 46.4 °F 82% 30.03 in 10.0 mi Calm Calm - N/A   Mostly Cloudy
1:36 AM 51.8 °F - 46.4 °F 82% 30.03 in 10.0 mi Calm Calm - N/A   Mostly Cloudy
1:56 AM 50.0 °F - 46.4 °F 87% 30.03 in 10.0 mi North 3.5 mph - N/A   Mostly Cloudy
2:16 AM 51.8 °F - 46.4 °F 82% 30.03 in 10.0 mi NNE 3.5 mph - N/A   Mostly Cloudy
2:36 AM 51.8 °F - 46.4 °F 82% 30.03 in 10.0 mi North 4.6 mph - N/A   Partly Cloudy
2:56 AM 48.2 °F - 44.6 °F 87% 30.03 in 10.0 mi NNE 6.9 mph - N/A   Clear
3:16 AM 46.4 °F 43.5 °F 44.6 °F 93% 30.04 in 10.0 mi NNE 5.8 mph - N/A   Partly Cloudy
3:36 AM 48.2 °F - 44.6 °F 87% 30.04 in 10.0 mi North 6.9 mph - N/A   Scattered Clouds
3:56 AM 48.2 °F - 46.4 °F 93% 30.04 in 10.0 mi North 4.6 mph - N/A   Mostly Cloudy
4:16 AM 48.2 °F - 46.4 °F 93% 30.04 in 10.0 mi North 4.6 mph - N/A   Mostly Cloudy
4:36 AM 48.2 °F - 46.4 °F 93% 30.04 in 10.0 mi North 5.8 mph - N/A   Mostly Cloudy
4:56 AM 51.8 °F - 48.2 °F 88% 30.04 in 10.0 mi North 4.6 mph - N/A   Overcast
5:16 AM 50.0 °F - 46.4 °F 87% 30.03 in 10.0 mi NE 4.6 mph - N/A   Overcast
5:36 AM 50.0 °F - 48.2 °F 94% 30.03 in 10.0 mi NNE 4.6 mph - N/A   Mostly Cloudy
5:56 AM 50.0 °F - 46.4 °F 87% 30.04 in 10.0 mi North 5.8 mph - N/A   Overcast
6:16 AM 50.0 °F - 48.2 °F 94% 30.04 in 10.0 mi North 4.6 mph - N/A   Overcast
6:36 AM 50.0 °F - 48.2 °F 94% 30.04 in 10.0 mi North 4.6 mph - N/A   Overcast
6:56 AM 51.8 °F - 48.2 °F 88% 30.03 in 10.0 mi North 5.8 mph - N/A   Overcast
7:16 AM 51.8 °F - 48.2 °F 88% 30.03 in 10.0 mi North 5.8 mph - N/A   Overcast
7:36 AM 51.8 °F - 48.2 °F 88% 30.03 in 10.0 mi NNE 5.8 mph - N/A   Overcast
7:56 AM 51.8 °F - 48.2 °F 88% 30.04 in 10.0 mi NE 5.8 mph - N/A   Overcast
8:16 AM 51.8 °F - 48.2 °F 88% 30.04 in 10.0 mi ENE 4.6 mph - N/A   Overcast
8:36 AM 51.8 °F - 48.2 °F 88% 30.04 in 10.0 mi Calm Calm - N/A   Overcast
8:56 AM 51.8 °F - 48.2 °F 88% 30.04 in 10.0 mi NNE 4.6 mph - N/A   Overcast
9:16 AM 51.8 °F - 48.2 °F 88% 30.04 in 10.0 mi NE 5.8 mph - N/A   Overcast
9:36 AM 51.8 °F - 48.2 °F 88% 30.03 in 9.0 mi NE 6.9 mph - N/A   Overcast
9:56 AM 53.6 °F - 48.2 °F 82% 30.04 in 10.0 mi NE 8.1 mph - N/A   Overcast
10:16 AM 53.6 °F - 48.2 °F 82% 30.04 in 10.0 mi NE 9.2 mph - N/A   Overcast
10:36 AM 53.6 °F - 48.2 °F 82% 30.04 in 10.0 mi NE 9.2 mph - N/A   Overcast
10:56 AM 55.4 °F - 48.2 °F 77% 30.04 in 10.0 mi NE 10.4 mph - N/A   Mostly Cloudy
11:16 AM 55.4 °F - 48.2 °F 77% 30.04 in 10.0 mi ENE 9.2 mph - N/A   Mostly Cloudy
11:36 AM 55.4 °F - 48.2 °F 77% 30.04 in 10.0 mi NE 10.4 mph - N/A   Overcast
11:56 AM 55.4 °F - 48.2 °F 77% 30.04 in 10.0 mi NE 10.4 mph - N/A   Mostly Cloudy
12:16 PM 55.4 °F - 48.2 °F 77% 30.03 in 10.0 mi ENE 10.4 mph - N/A   Overcast
12:36 PM 57.2 °F - 48.2 °F 72% 30.03 in 10.0 mi NE 10.4 mph - N/A   Overcast
12:56 PM 57.2 °F - 48.2 °F 72% 30.03 in 10.0 mi NE 9.2 mph - N/A   Overcast
1:16 PM 57.2 °F - 46.4 °F 67% 30.02 in 10.0 mi NE 9.2 mph - N/A   Mostly Cloudy
1:36 PM 57.2 °F - 48.2 °F 72% 30.03 in 10.0 mi NE 9.2 mph - N/A   Overcast
1:56 PM 57.2 °F - 46.4 °F 67% 30.03 in 10.0 mi North 6.9 mph - N/A   Overcast
2:16 PM 55.4 °F - 48.2 °F 77% 30.03 in 5.0 mi North 4.6 mph - 0.05 in   Mostly Cloudy
2:36 PM 55.4 °F - 50.0 °F 82% 30.03 in 10.0 mi NNE 4.6 mph - 0.06 in   Overcast
2:56 PM 55.4 °F - 50.0 °F 82% 30.03 in 10.0 mi Calm Calm - 0.06 in   Overcast
3:16 PM 55.4 °F - 48.2 °F 77% 30.03 in 10.0 mi NNE 3.5 mph - N/A   Overcast
3:36 PM 57.2 °F - 50.0 °F 77% 30.02 in 10.0 mi NE 4.6 mph - N/A   Overcast
3:56 PM 57.2 °F - 48.2 °F 72% 30.02 in 10.0 mi NNE 5.8 mph - N/A   Overcast
4:16 PM 55.4 °F - 50.0 °F 82% 30.02 in 10.0 mi NE 10.4 mph - N/A   Overcast
4:36 PM 55.4 °F - 50.0 °F 82% 30.02 in 10.0 mi NE 6.9 mph - N/A   Overcast
4:56 PM 55.4 °F - 50.0 °F 82% 30.03 in 10.0 mi SSW 6.9 mph - N/A   Overcast
5:16 PM 53.6 °F - 48.2 °F 82% 30.03 in 4.0 mi Calm Calm - 0.01 in   Overcast
5:36 PM 53.6 °F - 48.2 °F 82% 30.03 in 4.0 mi Calm Calm - 0.03 in   Mostly Cloudy
5:56 PM 53.6 °F - 48.2 °F 82% 30.03 in 3.0 mi Calm Calm - 0.05 in   Overcast
6:16 PM 53.6 °F - 48.2 °F 82% 30.03 in 5.0 mi SSE 3.5 mph - 0.02 in   Overcast
6:36 PM 53.6 °F - 50.0 °F 88% 30.03 in 8.0 mi Calm Calm - 0.03 in   Overcast
6:56 PM 53.6 °F - 50.0 °F 88% 30.03 in 9.0 mi NNE 4.6 mph - 0.04 in   Overcast
7:16 PM 53.6 °F - 48.2 °F 82% 30.03 in 10.0 mi NNE 6.9 mph - 0.01 in   Overcast
7:36 PM 53.6 °F - 48.2 °F 82% 30.03 in 10.0 mi NNE 6.9 mph - 0.01 in   Overcast
7:56 PM 51.8 °F - 48.2 °F 88% 30.02 in 10.0 mi NNE 6.9 mph - 0.01 in   Overcast
8:16 PM 51.8 °F - 48.2 °F 88% 30.02 in 10.0 mi NNE 6.9 mph - N/A   Overcast
8:36 PM 51.8 °F - 48.2 °F 88% 30.02 in 10.0 mi NNE 6.9 mph - N/A   Overcast
8:56 PM 51.8 °F - 48.2 °F 88% 30.02 in 10.0 mi NNE 8.1 mph - N/A   Overcast
9:16 PM 51.8 °F - 48.2 °F 88% 30.02 in 10.0 mi NE 6.9 mph - N/A   Overcast
9:36 PM 51.8 °F - 48.2 °F 88% 30.02 in 10.0 mi NNE 6.9 mph - N/A   Overcast
9:56 PM 51.8 °F - 48.2 °F 88% 30.02 in 10.0 mi NNE 5.8 mph - N/A   Overcast
10:16 PM 51.8 °F - 48.2 °F 88% 30.02 in 10.0 mi NNE 3.5 mph - N/A   Overcast
10:36 PM 51.8 °F - 48.2 °F 88% 30.01 in 10.0 mi NNE 4.6 mph - N/A   Overcast
10:56 PM 51.8 °F - 46.4 °F 82% 30.01 in 10.0 mi NNE 5.8 mph - N/A   Overcast
11:16 PM 51.8 °F - 46.4 °F 82% 30.01 in 10.0 mi NE 5.8 mph - N/A   Overcast
11:36 PM 51.8 °F - 46.4 °F 82% 30.01 in 10.0 mi ENE 8.1 mph - N/A   Overcast
11:56 PM 51.8 °F - 46.4 °F 82% 30.01 in 10.0 mi NE 5.8 mph - N/A   Overcast